DECAYED

DMSP 5D-2 F13 DEB, 42328 (Decayed)

Orbit data source: Space-Track

DMSP 5D-2 F13 DEB, 42328 was space debris in SSO originally from a launch on Fri, 24 Mar 1995 UTC launched from the Air Force Western Test Range (AFWTR). Debris objects in space refer to the collection of defunct objects orbiting the Earth. Examples of debris include non-operational satellites, rocket bodies, and fragments generated from explosions, collisions, or faulty payload assembly.

Not visible in the next 10 days
Identifier
42328, 1995-015JW
Orbit
Decayed
Country
Flag of USUS
Related business
Manufacturer
Unknown
Mission
Decayed spacecraft
Bus & Motor
Unknown
Mass
Unknown
Launch date (UTC)
1995-03-24 (31 years ago)
Launch vehicle
Unknown
Launch site
Air Force Western Test Range (AFWTR)
Object type
Payload
Rocket body
Debris
Shape & HBR
Unknown shape, 0.1 m
Radar Cross Section
Small (<0.1 m²)

Expand to show TLE details & history
Last TLE update: 1 year ago

TLE from 1 year ago
0 DMSP 5D-2 F13 DEB
1 42328U 95015JW  25104.03233670  .02565912  00000-0  36656-1 0  9992
2 42328  98.7778 138.0537 0014606 224.2453 135.7629 15.52791595492066
Epoch: 2025-04-14T00:46Z
TLE epoch observation values (Epoch: 2025-04-14T00:46:33.890Z)
Latitude
-0.00002°
Longitude
-76.04063°
Altitude
418.782 km
Speed
7.656 km/s
True Right ascension
09h 12m 12s
True Declination
0° 00' 00"
Sunlit
Object was in full shadow at epoch
Visualization orbit readout
Latitude
Unknown
Longitude
Unknown
Altitude
Unknown
Speed
Unknown
Apparent Right ascension
Unknown
Apparent Declination
Unknown
Sunlit
N/A
Visualization observer readout
Local Sidereal Time
05:05:16
Azimuth
Unknown
Elevation
Unknown
Doppler factor
Unknown
Orbital elements
Apogee altitude
415.475 km
Perigee altitude
395.659 km
Semi-major axis
6,783.704 km
Eccentricity
0.00146
Inclination
98.7778°
RAAN
138.0537°
Arg. of periapsis
224.2453°
True anomaly
135.87951°
Mean anomaly
135.7629°
Eccentric anomaly
135.82122°
Mean motion
3.88457 °/min
Orbital period
92.67 mins
BSTAR
0.036656
Loading maneuver chart data...
Computing Atmospheric mass density...

Documentation

Showing up to 5 results
|